127.0.0.1:3305
Puerto Buceo - Registro de nivel agua, temperatura y humedad (byACO)
DIA HORA NIVEL(mts) TEMP(°C) HUMEDAD(%)
03-09-2026 07:21:02 1.09 12.6 > 90
03-09-2026 06:46:37 1.13 12.9 > 90
03-09-2026 06:36:35 1.12 12.9 5.0
03-09-2026 06:26:31 1.22 12.9 53.0
03-09-2026 05:21:23 1.15 13.4 > 90
03-09-2026 05:01:01 1.10 13.5 > 90
03-09-2026 04:40:20 1.03 13.5 > 90
03-09-2026 04:27:14 1.15 13.5 > 90
03-09-2026 04:09:29 1.08 13.5 > 90
03-09-2026 03:39:01 1.08 13.9 5.0
03-09-2026 03:28:55 1.07 13.9 5.0
03-09-2026 02:06:41 1.17 16.7 5.0
03-09-2026 01:21:05 1.05 18.8 5.0
02-09-2026 22:26:38 0.69 18.5 5.0
02-09-2026 21:27:04 0.62 18.9 21.0
02-09-2026 20:26:36 0.99 18.9 5.0
02-09-2026 19:20:45 1.04 19.4 5.0
02-09-2026 18:54:07 0.94 19.7 5.0
02-09-2026 18:43:48 1.05 19.7 5.0
02-09-2026 18:26:37 0.95 20.1 5.0
02-09-2026 17:26:33 1.05 21.4 5.0
02-09-2026 16:26:48 1.14 21.2 5.0
02-09-2026 13:26:43 1.22 21.6 5.0
02-09-2026 12:26:30 1.25 22.8 5.0
02-09-2026 11:27:01 1.28 21.7 5.0
02-09-2026 10:27:12 1.11 18.2 5.0
02-09-2026 09:26:39 1.02 14.2 10.0
02-09-2026 08:27:03 1.20 13.8 5.0
02-09-2026 07:26:47 1.31 9.8 88.0
02-09-2026 06:23:03 1.45 9.8 88.0
02-09-2026 05:26:53 1.25 10.5 88.0
02-09-2026 00:57:35 1.08 13.6 5.0
02-09-2026 00:27:00 1.09 13.8 5.0
01-09-2026 23:26:30 1.16 13.3 5.0
01-09-2026 23:21:56 1.12 13.5 5.0
01-09-2026 23:11:29 1.06 13.5 5.0
01-09-2026 22:25:09 0.91 14.0 5.0
01-09-2026 22:02:28 0.89 14.2 5.0
01-09-2026 20:27:10 0.82 14.1 32.0
01-09-2026 19:26:56 1.07 13.9 28.0
01-09-2026 18:26:44 1.15 14.4 5.0
01-09-2026 14:26:31 1.14 17.4 > 90
01-09-2026 12:26:43 1.21 16.7 5.0
01-09-2026 10:18:09 1.06 15.6 79.0
01-09-2026 10:06:39 1.07 16.3 > 90
01-09-2026 09:56:22 1.01 15.7 > 90
01-09-2026 09:36:00 0.99 14.8 > 90
01-09-2026 09:16:06 0.95 14.2 > 90
01-09-2026 08:25:06 1.05 13.5 > 90
01-09-2026 08:12:17 1.09 13.4 > 90
01-09-2026 07:26:27 1.19 13.8 > 90
01-09-2026 05:27:09 1.16 13.4 > 90
01-09-2026 04:24:52 1.09 13.4 > 90
01-09-2026 04:04:30 1.07 13.4 > 90
01-09-2026 03:53:56 1.08 13.7 47.0
01-09-2026 03:43:43 1.06 13.7 > 90
01-09-2026 03:26:36 0.97 14.0 5.0
01-09-2026 02:26:38 1.05 14.6 5.0
01-09-2026 01:27:06 1.06 14.7 13.0
01-09-2026 00:19:13 1.01 14.4 5.0
01-09-2026 00:09:12 0.95 14.6 5.0
31-08-2026 23:59:06 0.91 14.8 5.0
31-08-2026 23:48:51 0.93 15.0 5.0
31-08-2026 23:38:31 1.01 15.0 5.0
31-08-2026 20:27:13 0.65 14.6 > 90
31-08-2026 20:06:55 0.59 14.7 > 90
31-08-2026 19:26:38 0.72 15.1 39.0
31-08-2026 18:17:04 0.96 16.8 > 90
31-08-2026 17:56:22 0.91 18.2 5.0
31-08-2026 17:46:18 0.97 18.3 5.0
31-08-2026 17:23:29 0.89 18.9 5.0
31-08-2026 16:21:19 1.00 16.5 88.0
31-08-2026 16:11:16 1.07 16.9 > 90
31-08-2026 16:01:07 0.96 17.1 > 90
31-08-2026 15:51:08 0.99 17.1 > 90
31-08-2026 15:26:37 1.05 17.2 > 90
31-08-2026 14:18:21 0.97 17.3 66.0
31-08-2026 12:26:38 1.06 20.6 5.0
31-08-2026 11:22:19 1.04 19.4 5.0
31-08-2026 11:11:53 1.01 19.3 5.0
31-08-2026 10:26:32 1.05 18.2 5.0
31-08-2026 07:26:38 1.03 12.5 > 90
31-08-2026 07:13:43 1.06 11.9 89.0
31-08-2026 05:24:01 1.31 11.9 89.0
31-08-2026 01:53:45 1.06 12.1 > 90
31-08-2026 01:39:22 1.05 12.3 > 90
31-08-2026 01:26:32 1.04 12.4 5.0
30-08-2026 23:26:45 1.09 13.4 5.0
30-08-2026 22:26:35 1.01 13.9 5.0
30-08-2026 21:20:14 0.94 13.2 > 90
30-08-2026 20:27:10 0.73 13.8 > 90
30-08-2026 20:14:05 0.56 13.9 > 90
30-08-2026 17:26:50 1.06 17.3 20.0
30-08-2026 16:26:56 1.07 15.5 5.0
30-08-2026 15:27:05 1.14 15.3 > 90
30-08-2026 14:26:45 1.01 15.9 5.0
30-08-2026 13:26:40 1.06 17.4 5.0
30-08-2026 09:26:59 1.00 17.4 5.0
30-08-2026 07:26:36 1.06 11.4 > 90
30-08-2026 06:27:25 1.30 10.8 > 90
30-08-2026 02:48:47 1.08 10.9 88.0
30-08-2026 01:59:14 1.04 10.8 88.0
30-08-2026 01:48:51 1.00 10.8 88.0
30-08-2026 01:33:41 1.09 11.2 89.0
30-08-2026 01:23:23 1.07 11.3 89.0
30-08-2026 00:48:19 1.06 11.3 89.0
29-08-2026 23:48:48 1.11 11.5 89.0
29-08-2026 23:18:29 1.02 11.6 89.0
29-08-2026 22:21:40 1.05 11.5 89.0
29-08-2026 21:50:06 0.98 11.9 89.0
29-08-2026 21:31:54 1.04 12.1 > 90
29-08-2026 20:48:46 0.88 12.3 > 90
29-08-2026 19:51:47 0.84 12.3 > 90
29-08-2026 19:25:38 0.71 12.2 18.0
29-08-2026 18:25:33 0.90 12.6 5.0
29-08-2026 17:54:03 0.87 14.7 5.0
29-08-2026 17:33:17 0.88 16.1 > 90
29-08-2026 17:23:11 0.95 14.6 > 90
29-08-2026 17:13:02 0.97 14.6 > 90
29-08-2026 16:54:39 0.95 13.8 > 90
29-08-2026 16:25:40 1.02 13.7 82.0
29-08-2026 15:25:37 1.07 13.6 > 90
29-08-2026 14:11:37 0.99 13.3 5.0
29-08-2026 14:01:33 1.07 13.3 5.0
29-08-2026 13:26:06 0.97 15.7 5.0
29-08-2026 12:25:40 1.05 18.0 5.0
29-08-2026 11:25:38 1.07 15.6 5.0
29-08-2026 10:25:56 1.06 14.7 43.0
29-08-2026 09:25:41 1.11 13.2 5.0
29-08-2026 09:01:37 1.11 12.2 > 90
29-08-2026 08:25:39 1.11 10.9 88.0
29-08-2026 08:01:29 0.90 10.7 88.0
29-08-2026 07:25:30 1.08 10.0 88.0
29-08-2026 06:25:32 1.13 9.0 88.0
29-08-2026 05:25:30 1.29 8.8 88.0
29-08-2026 04:32:40 1.37 9.1 88.0
29-08-2026 03:35:43 1.38 9.8 88.0
29-08-2026 03:25:36 1.30 9.8 88.0
29-08-2026 01:25:44 1.17 11.0 89.0
28-08-2026 23:25:58 1.20 11.1 89.0
28-08-2026 21:25:53 1.09 11.4 89.0
28-08-2026 20:25:45 1.05 11.4 89.0
28-08-2026 20:01:18 0.93 11.5 89.0
28-08-2026 19:46:18 0.95 11.6 89.0
28-08-2026 19:26:02 0.90 11.7 89.0
28-08-2026 19:01:20 0.70 11.9 17.0
28-08-2026 17:58:13 0.93 14.9 5.0
28-08-2026 17:48:04 1.02 15.1 5.0
28-08-2026 17:38:01 0.99 15.4 5.0
28-08-2026 17:25:37 0.96 16.7 5.0
28-08-2026 16:25:40 1.12 15.0 5.0
28-08-2026 14:01:25 0.96 14.8 5.0
28-08-2026 13:25:40 1.14 16.2 5.0
28-08-2026 12:25:36 1.26 14.8 > 90
28-08-2026 11:01:25 1.22 14.0 5.0
28-08-2026 09:25:37 0.98 13.3 > 90
28-08-2026 08:25:38 1.09 15.2 > 90
28-08-2026 07:26:04 0.99 11.8 89.0
28-08-2026 06:25:37 0.99 11.9 89.0
28-08-2026 05:25:57 1.26 11.8 89.0
28-08-2026 03:46:21 1.35 11.4 89.0
28-08-2026 03:25:29 1.39 11.4 89.0
28-08-2026 02:01:25 1.31 11.8 89.0
28-08-2026 00:25:33 1.25 11.7 89.0
28-08-2026 00:01:38 1.19 11.6 89.0
27-08-2026 23:25:31 1.25 11.9 89.0
27-08-2026 22:25:37 1.16 12.1 > 90
27-08-2026 21:38:20 1.07 12.4 > 90
27-08-2026 21:25:31 1.30 12.4 > 90
27-08-2026 21:01:29 1.11 12.6 > 90
27-08-2026 20:26:01 1.17 12.5 > 90
27-08-2026 19:25:48 1.19 12.7 > 90
27-08-2026 17:52:44 0.89 12.7 > 90
27-08-2026 17:21:52 0.72 13.0 > 90
27-08-2026 17:11:49 0.89 13.1 > 90
27-08-2026 17:01:37 0.93 13.1 > 90
27-08-2026 16:25:38 1.16 13.7 > 90
27-08-2026 14:25:33 1.06 13.4 > 90
27-08-2026 13:54:54 0.95 13.8 84.0
27-08-2026 13:44:46 0.96 13.8 > 90
27-08-2026 13:25:45 1.04 13.9 40.0
27-08-2026 12:15:56 0.73 14.3 5.0
27-08-2026 12:01:32 0.90 14.5 5.0
27-08-2026 10:25:54 0.71 13.3 > 90
27-08-2026 09:25:51 0.81 13.2 > 90
27-08-2026 08:25:41 0.80 12.8 > 90
27-08-2026 07:40:14 0.54 12.8 > 90
27-08-2026 06:17:10 0.62 12.7 > 90
27-08-2026 05:38:17 0.54 12.4 > 90
27-08-2026 05:25:35 0.75 12.3 > 90
27-08-2026 05:12:30 0.64 12.5 > 90
27-08-2026 02:25:48 0.69 14.2 > 90
27-08-2026 01:25:48 0.62 12.8 > 90
27-08-2026 01:01:28 0.59 12.5 > 90
27-08-2026 00:25:51 0.55 12.5 > 90
27-08-2026 00:01:25 0.54 12.7 > 90
26-08-2026 23:25:54 0.58 12.4 84.0
26-08-2026 22:56:59 0.59 12.6 > 90
26-08-2026 22:46:46 0.57 12.6 > 90
26-08-2026 22:25:33 0.64 12.5 > 90
26-08-2026 21:58:02 0.54 12.5 > 90
26-08-2026 21:47:54 0.57 12.7 5.0
26-08-2026 21:37:53 0.47 12.8 5.0
26-08-2026 21:25:38 0.57 13.1 13.0
26-08-2026 21:01:33 0.56 13.3 5.0
26-08-2026 20:25:31 0.46 13.4 5.0
26-08-2026 20:01:18 0.52 13.3 5.0
26-08-2026 19:01:21 0.41 14.6 5.0
26-08-2026 18:26:00 0.38 14.9 5.0
26-08-2026 18:01:23 0.32 15.4 5.0
26-08-2026 17:25:54 0.42 15.6 5.0
26-08-2026 17:01:22 0.37 15.8 5.0
26-08-2026 16:01:28 0.41 16.3 65.0
26-08-2026 15:25:36 0.45 16.2 37.0
26-08-2026 15:01:25 0.47 16.2 21.0
26-08-2026 14:25:39 0.51 15.4 5.0
26-08-2026 14:01:25 0.38 14.8 5.0
26-08-2026 13:25:34 0.41 15.7 12.0
26-08-2026 12:25:57 0.24 14.2 5.0
26-08-2026 12:01:32 0.38 15.8 5.0
26-08-2026 11:25:55 0.21 13.9 5.0
26-08-2026 10:25:48 0.20 11.9 > 90
26-08-2026 09:25:35 0.18 9.9 > 90
26-08-2026 09:01:30 0.17 9.6 > 90
26-08-2026 08:01:25 0.19 9.1 21.0
26-08-2026 07:25:43 0.29 8.2 88.0
26-08-2026 07:01:20 0.25 7.9 88.0
26-08-2026 06:25:58 0.32 7.9 88.0
26-08-2026 06:01:40 0.29 8.1 60.0
26-08-2026 05:25:52 0.33 8.2 > 90
26-08-2026 05:01:18 0.37 8.6 > 90
26-08-2026 04:25:45 0.35 8.4 > 90
26-08-2026 04:01:31 0.30 8.7 > 90
26-08-2026 03:25:40 0.41 8.7 88.0
26-08-2026 02:25:41 0.47 8.9 > 90
26-08-2026 02:01:36 0.44 8.8 > 90
26-08-2026 01:25:50 0.49 8.9 15.0
26-08-2026 01:01:33 0.41 9.2 11.0
26-08-2026 00:25:37 0.43 9.4 > 90
25-08-2026 23:26:02 0.38 9.8 5.0
25-08-2026 23:01:18 0.39 10.1 > 90
25-08-2026 22:25:42 0.44 10.4 24.0
25-08-2026 22:01:23 0.44 10.8 > 90
25-08-2026 21:25:58 0.41 10.9 > 90
25-08-2026 20:25:34 0.53 10.5 14.0
25-08-2026 19:25:46 0.48 10.2 88.0
25-08-2026 19:01:36 0.54 10.2 > 90
25-08-2026 18:25:45 0.45 10.3 > 90
25-08-2026 18:01:28 0.49 10.9 88.0
25-08-2026 17:25:53 0.45 12.1 > 90
25-08-2026 17:01:20 0.50 11.6 89.0
25-08-2026 16:25:47 0.50 11.8 89.0
25-08-2026 15:52:51 0.50 11.9 89.0
25-08-2026 15:21:47 0.57 12.3 > 90
25-08-2026 15:11:32 0.63 12.4 > 90
25-08-2026 15:01:21 0.68 12.4 > 90
25-08-2026 14:01:55 0.56 12.6 > 90
25-08-2026 13:25:36 0.64 13.3 > 90
25-08-2026 13:01:32 0.56 14.2 > 90
25-08-2026 12:25:44 0.63 14.3 > 90
25-08-2026 11:25:44 0.62 13.6 > 90
25-08-2026 11:01:29 0.52 12.9 > 90
25-08-2026 10:25:45 0.62 12.0 > 90
25-08-2026 10:01:24 0.57 11.2 89.0
25-08-2026 09:25:38 0.64 7.1 88.0
25-08-2026 08:25:37 0.61 6.2 88.0
25-08-2026 08:01:28 0.66 6.1 88.0
25-08-2026 07:43:07 0.65 6.1 88.0
25-08-2026 07:25:40 0.76 6.3 88.0
25-08-2026 07:01:25 0.62 6.3 88.0
25-08-2026 06:25:42 0.69 6.4 88.0
25-08-2026 05:26:00 0.63 6.5 88.0
25-08-2026 05:01:26 0.68 6.4 88.0
25-08-2026 04:25:53 0.68 6.2 88.0
25-08-2026 03:13:20 0.86 6.5 88.0
25-08-2026 02:25:52 0.89 6.5 88.0
25-08-2026 01:49:42 0.89 6.5 88.0
25-08-2026 01:25:35 0.93 7.1 88.0
25-08-2026 00:37:16 1.03 7.2 88.0